Regional Weather Roundup
Issued by NWS Charleston, SC

Current Version | Previous Version | Graphics & Text | Print | Product List | Glossary On
Versions: 1 2 3 4 5 6 7 8 9 10 11 12 13 14 15 16 17 18 19 20 21 22 23 24 25 26 27 28 29 30 31 32 33 34 35 36 37 38 39 40 41 42 43 44 45 46 47 48 49 50
000 ASUS42 KCHS 210525 RWRCHS REGIONAL WEATHER ROUNDUP NATIONAL WEATHER SERVICE CHARLESTON SC 100 AM EDT THU AUG 21 2014 NOTE: "FAIR" INDICATES FEW OR NO CLOUDS BELOW 12,000 FEET WITH NO SIGNIFICANT WEATHER AND/OR OBSTRUCTIONS TO VISIBILITY. NOT ALL STATIONS ARE QUALITY CONTROLLED BY THE NATIONAL WEATHER SERVICE. USE DATA WITH CAUTION...ESPECIALLY DEWPOINT OBSERVATIONS. SCZ027-030-031-034>040-042>050-210600- ...SOUTH CAROLINA... CITY SKY/WX TMP DP RH WIND PRES REMARKS N CHARLESTON PTCLDY 83 73 72 W5 30.04S WATERFRONT PRK N/A 84 N/A N/A W3 N/A FORT JOHNSON NOT AVBL MOUNT PLEASANT FAIR 82 79 89 W5 30.03F HX 93 JOHNS ISLAND CLEAR 81 81 100 CALM 30.04F HX 91 PINOPOLIS N/A 84 75 74 W10 29.95S HX 92 MONCKS CORNER N/A 79 77 94 CALM 30.03S SUMMERVILLE FAIR 77 75 94 S3 30.04F BEAUFORT MCAS PTCLDY 81 71 71 NW3 30.05S BEAUFORT ARPT FAIR 81 72 74 W7 30.04S HILTON HEAD IS PTCLDY 81 73 78 W5 30.05F GEORGETOWN NOT AVBL WALTERBORO PTCLDY 79 77 94 CALM 30.04F ORANGEBURG MOCLDY 77 69 76 SW5 30.04F BARNWELL FAIR 77 70 78 W3 30.05F AIKEN FAIR 77 72 83 W6 30.09S MANNING FAIR 79 79 100 CALM 30.02S KINGSTREE NOT AVBL COLUMBIA CLOUDY 83 70 64 NW5 30.03S SUMTER CLOUDY 80 73 78 W5 30.01S FLORENCE MOCLDY 77 74 90 CALM 30.02S MYRTLE BEACH MOCLDY 79 75 89 CALM 30.02F N MYRTLE BEACH PTCLDY 78 77 96 CALM 30.01F FOG $$ GAZ063-065-086>088-099>101-113>116-118-119-134-136>141-150-210600- ...GEORGIA... CITY SKY/WX TMP DP RH WIND PRES REMARKS SAVANNAH ARPT PTCLDY 79 70 74 CALM 30.07S HUNTER AAF MOCLDY 80 71 74 NW6 30.04F FORT STEWART CLOUDY 76 71 83 W5 30.06S STATESBORO NOT AVBL SYLVANIA MOCLDY 74 73 96 CALM 30.07F CLAXTON FAIR 75 75 100 W3 30.07F THOMSON CLOUDY 75 74 95 CALM 30.11F AUGUSTA-BUSH CLOUDY 74 69 85 W5 30.05F AUGUSTA-DANIEL CLOUDY 78 68 71 NW7 30.06F SWAINSBORO FAIR 77 72 83 W5 30.09S VIDALIA N/A 73 70 88 W3 30.10R ALMA MOCLDY 76 70 82 CALM 30.09S WAYCROSS MOCLDY 79 74 84 CALM 30.09F JESUP N/A 79 72 78 CALM 30.07F BRUNSWICK MOCLDY 79 70 73 W3 30.08F SAINT SIMONS MOCLDY 81 71 71 W3 30.08R $$ SCZ027-028-034-036>038-045-046-048>050-GAZ119-141-210600- ...LAKE AND SUPPLEMENTAL COASTAL OBSERVATIONS... STATION/POSITION TIME TEMP WIND PRES WAVE SWELL AIR SEA DIR/SP/G HT/PER HT/PER/DIR (UTC) (F) (DEG/KT/KT) (MB) (FT/S) (FT/S/D) UPR LAKE MARION NOT AVBL WINYAH BAY 0500 79 250/ 1 1016.0F LAKE MURRAY 0400 82 320/ 3/ 11 1016.6S ACE BASIN NERRS 0500 81 CALM 1017.0F FORT PULASKI 0500 80 310/ 7/ 10 1017.9F SAPELO ISLAND 0500 81 320/ 2 1019.0S $$ ANZ835-935-AMZ111-154-330-350-352-354-374-450-454-472-210600- ...C-MAN AND BUOY OBSERVATIONS... STATION/POSITION TIME TEMP WIND PRES WAVE SWELL AIR SEA DIR/SP/G HT/PER HT/PER/DIR (UTC) (F) (DEG/KT/KT) (MB) (FT/S) (FT/S/D) FOLLY BEACH CMAN 0500 82 260/ 3/ 5 1017.6R BUOY 41004 0500 84 84 230/ 10/ 12 1016.6S 3/ 4 2/ 8 BUOY 41008 0500 85 85 230/ 10/ 12 1018.1R 2/ 4 2/110/ 8 5E ST. MARYS GA 0500 82 N/A 2/ 3 FRYING PAN BUOY NOT AVBL BUOY 41025 0500 78 290/ 2/ 4 1017.2R 2/ 9 2/ 70/ 9 CAPE LOOKOUT NC 0500 80 230/ 5/ 6 1016.7F BUOY 41002 0417 81 81 250/ 12/ 14 1018.9R 4/ 7 2/250/ 7 BUOY 41010 0500 84 85 190/ 12/ 12 1019.5R 2/ 8 2/130/ 8 BUOY 41012 NOT AVBL ST AUGUSTINE FL 0500 78 240/ 4/ 5 1019.5S CAPERS NEARSHORE 0400 85 240/ 8/ 10 N/A FRIPP NEARSHORE NOT AVBL $$

USA.gov is the U.S. government's official web portal to all federal, state and local government web resources and services.